| time (UTC) | temp F | wind direction | speed MPH | gust MPH | rain 1hr in | rain 24hr in | rain mn in | humidity % | barometer mb |
| 20260503034505 | 53 | 136 | 3.0 | 5.0 | 0.00 | 0.00 | 0.00 | 17 | 985.3 |
| 20260503034005 | 53 | 143 | 5.0 | 9.0 | 0.00 | 0.00 | 0.00 | 16 | 984.7 |
| 20260503033503 | 53 | 140 | 5.0 | 8.0 | 0.00 | 0.00 | 0.00 | 16 | 985.2 |
| 20260503033009 | 53 | 159 | 3.0 | 8.0 | 0.00 | 0.00 | 0.00 | 17 | 985.3 |
| 20260503032508 | 53 | 135 | 4.0 | 7.0 | 0.00 | 0.00 | 0.00 | 16 | 985.6 |
| 20260503032007 | 53 | 146 | 5.0 | 5.0 | 0.00 | 0.00 | 0.00 | 15 | 985.5 |
| 20260503031507 | 53 | 133 | 4.0 | 7.0 | 0.00 | 0.00 | 0.00 | 14 | 984.9 |
| 20260503031007 | 54 | 155 | 5.0 | 7.0 | 0.00 | 0.00 | 0.00 | 13 | 984.3 |
| 20260503030506 | 54 | 135 | 4.0 | 6.0 | 0.00 | 0.00 | 0.00 | 14 | 984.1 |
| 20260503030005 | 54 | 149 | 4.0 | 6.0 | 0.00 | 0.00 | 0.00 | 14 | 984.5 |
| 20260503025505 | 54 | 146 | 3.0 | 6.0 | 0.00 | 0.00 | 0.00 | 12 | 983.8 |
| 20260503025004 | 55 | 84 | 2.0 | 3.0 | 0.00 | 0.00 | 0.00 | 13 | 984.6 |
| 20260503024504 | 55 | 132 | 3.0 | 5.0 | 0.00 | 0.00 | 0.00 | 13 | 984.9 |
| 20260503024009 | 55 | 147 | 4.0 | 6.0 | 0.00 | 0.00 | 0.00 | 12 | 984.6 |
| 20260503023508 | 55 | 117 | 5.0 | 6.0 | 0.00 | 0.00 | 0.00 | 11 | 984.4 |
| 20260503023007 | 56 | 108 | 4.0 | 7.0 | 0.00 | 0.00 | 0.00 | 10 | 984.4 |
| 20260503022006 | 56 | 76 | 3.0 | 4.0 | 0.00 | 0.00 | 0.00 | 9 | 985.0 |
| 20260503021506 | 57 | 91 | 3.0 | 5.0 | 0.00 | 0.00 | 0.00 | 8 | 985.0 |
| 20260503021005 | 57 | 99 | 2.0 | 3.0 | 0.00 | 0.00 | 0.00 | 8 | 985.2 |
| 20260503020006 | 58 | 95 | 2.0 | 3.0 | 0.00 | 0.00 | 0.00 | 6 | 986.0 |
| 20260503015505 | 58 | 107 | 2.0 | 3.0 | 0.00 | 0.00 | 0.00 | 6 | 985.3 |
| 20260503015005 | 58 | 105 | 4.0 | 6.0 | 0.00 | 0.00 | 0.00 | 6 | 985.8 |
| 20260503014504 | 58 | 120 | 3.0 | 5.0 | 0.00 | 0.00 | 0.00 | 7 | 984.7 |
| 20260503014004 | 58 | 101 | 4.0 | 5.0 | 0.00 | 0.00 | 0.00 | 6 | 985.0 |
| 20260503013503 | 58 | 97 | 3.0 | 4.0 | 0.00 | 0.00 | 0.00 | 7 | 984.6 |
| 20260503013009 | 58 | 111 | 3.0 | 4.0 | 0.00 | 0.00 | 0.00 | 6 | 984.9 |
| 20260503012508 | 59 | 131 | 3.0 | 4.0 | 0.00 | 0.00 | 0.00 | 6 | 984.2 |
| 20260503012007 | 60 | 102 | 4.0 | 6.0 | 0.00 | 0.00 | 0.00 | 5 | 984.7 |
| 20260503011507 | 60 | 125 | 3.0 | 4.0 | 0.00 | 0.00 | 0.00 | 5 | 985.1 |
| 20260503011006 | 60 | 124 | 3.0 | 4.0 | 0.00 | 0.00 | 0.00 | 5 | 984.9 |
| 20260503010506 | 60 | 115 | 3.0 | 5.0 | 0.00 | 0.00 | 0.00 | 5 | 984.4 |
| 20260503010005 | 61 | 116 | 2.0 | 4.0 | 0.00 | 0.00 | 0.00 | 5 | 985.2 |
| 20260503005004 | 61 | 113 | 3.0 | 5.0 | 0.00 | 0.00 | 0.00 | 4 | 985.0 |
| 20260503004503 | 62 | 144 | 5.0 | 7.0 | 0.00 | 0.00 | 0.00 | 4 | 985.7 |
| 20260503003509 | 63 | 136 | 3.0 | 4.0 | 0.00 | 0.00 | 0.00 | 2 | 985.7 |
| 20260503003008 | 62 | 163 | 2.0 | 3.0 | 0.00 | 0.00 | 0.00 | 2 | 985.0 |
| 20260503002007 | 62 | 127 | 3.0 | 4.0 | 0.00 | 0.00 | 0.00 | 3 | 984.9 |
| 20260503001507 | 63 | 145 | 4.0 | 4.0 | 0.00 | 0.00 | 0.00 | 3 | 984.7 |
| 20260503001006 | 63 | 145 | 3.0 | 6.0 | 0.00 | 0.00 | 0.00 | 3 | 984.7 |
| 20260503000005 | 64 | 154 | 4.0 | 4.0 | 0.00 | 0.00 | 0.00 | 1 | 985.2 |
| 20260502235505 | 65 | 150 | 4.0 | 5.0 | 0.00 | 0.00 | 0.00 | 1 | 985.4 |
| 20260502235004 | 64 | 145 | 5.0 | 5.0 | 0.00 | 0.00 | 0.00 | 2 | 985.9 |
| 20260502234504 | 65 | 138 | 4.0 | 4.0 | 0.00 | 0.00 | 0.00 | 1 | 985.1 |
| 20260502234003 | 65 | 130 | 5.0 | 6.0 | 0.00 | 0.00 | 0.00 | 1 | 985.4 |
| 20260502233503 | 65 | 138 | 4.0 | 5.0 | 0.00 | 0.00 | 0.00 | 2 | 985.3 |
| 20260502233008 | 65 | 141 | 6.0 | 7.0 | 0.00 | 0.00 | 0.00 | 1 | 985.3 |
| 20260502232507 | 68 | 133 | 3.0 | 4.0 | 0.00 | 0.00 | 0.00 | 2 | 985.0 |
| 20260502232007 | 66 | 127 | 3.0 | 5.0 | 0.00 | 0.00 | 0.00 | 2 | 984.8 |
| 20260502231506 | 63 | 141 | 3.0 | 7.0 | 0.00 | 0.00 | 0.00 | 100 | 986.0 |
| 20260502231006 | 65 | 125 | 3.0 | 4.0 | 0.00 | 0.00 | 0.00 | 3 | 985.2 |
| 20260502230505 | 64 | 90 | 3.0 | 5.0 | 0.00 | 0.00 | 0.00 | 3 | 984.9 |
| 20260502230005 | 64 | 127 | 3.0 | 5.0 | 0.00 | 0.00 | 0.00 | 3 | 984.7 |
| 20260502225504 | 64 | 101 | 3.0 | 4.0 | 0.00 | 0.00 | 0.00 | 3 | 985.5 |
| 20260502225003 | 64 | 135 | 3.0 | 5.0 | 0.00 | 0.00 | 0.00 | 2 | 984.8 |
| 20260502224509 | 63 | 125 | 3.0 | 5.0 | 0.00 | 0.00 | 0.00 | 3 | 985.7 |
| 20260502224008 | 63 | 142 | 4.0 | 6.0 | 0.00 | 0.00 | 0.00 | 2 | 985.0 |
| 20260502223507 | 64 | 137 | 4.0 | 6.0 | 0.00 | 0.00 | 0.00 | 2 | 984.7 |
| 20260502223007 | 64 | 148 | 4.0 | 6.0 | 0.00 | 0.00 | 0.00 | 1 | 984.2 |
| 20260502222506 | 64 | 140 | 4.0 | 6.0 | 0.00 | 0.00 | 0.00 | 2 | 985.0 |
| 20260502222005 | 64 | 146 | 5.0 | 7.0 | 0.00 | 0.00 | 0.00 | 2 | 985.1 |
| 20260502221505 | 65 | 150 | 3.0 | 4.0 | 0.00 | 0.00 | 0.00 | 3 | 985.2 |
| 20260502221004 | 65 | 127 | 5.0 | 7.0 | 0.00 | 0.00 | 0.00 | 2 | 985.7 |
| 20260502220503 | 64 | 127 | 4.0 | 6.0 | 0.00 | 0.00 | 0.00 | 2 | 985.5 |
| 20260502220009 | 64 | 131 | 3.0 | 4.0 | 0.00 | 0.00 | 0.00 | 2 | 986.5 |
| 20260502215508 | 64 | 122 | 3.0 | 4.0 | 0.00 | 0.00 | 0.00 | 3 | 986.0 |
| 20260502215008 | 64 | 127 | 4.0 | 6.0 | 0.00 | 0.00 | 0.00 | 3 | 986.2 |
| 20260502214507 | 64 | 142 | 4.0 | 6.0 | 0.00 | 0.00 | 0.00 | 3 | 985.7 |
| 20260502214006 | 65 | 127 | 3.0 | 4.0 | 0.00 | 0.00 | 0.00 | 3 | 985.1 |
| 20260502213518 | 65 | 135 | 5.0 | 6.0 | 0.00 | 0.00 | 0.00 | 2 | 986.1 |
| 20260502213005 | 66 | 147 | 2.0 | 3.0 | 0.00 | 0.00 | 0.00 | 1 | 985.5 |
| 20260502212504 | 66 | 152 | 4.0 | 5.0 | 0.00 | 0.00 | 0.00 | 1 | 985.8 |
| 20260502212004 | 66 | 126 | 3.0 | 5.0 | 0.00 | 0.00 | 0.00 | 1 | 985.9 |
| 20260502211503 | 66 | 138 | 4.0 | 7.0 | 0.00 | 0.00 | 0.00 | 1 | 986.3 |
| 20260502211009 | 67 | 165 | 5.0 | 7.0 | 0.00 | 0.00 | 0.00 | 1 | 986.8 |
| 20260502210508 | 69 | 157 | 3.0 | 6.0 | 0.00 | 0.00 | 0.00 | 1 | 986.6 |
| 20260502210008 | 68 | 143 | 4.0 | 5.0 | 0.00 | 0.00 | 0.00 | 1 | 986.4 |
| 20260502205507 | 66 | 143 | 6.0 | 8.0 | 0.00 | 0.00 | 0.00 | 1 | 986.8 |
| 20260502205006 | 65 | 127 | 4.0 | 7.0 | 0.00 | 0.00 | 0.00 | 2 | 986.4 |
| 20260502204506 | 64 | 122 | 2.0 | 2.0 | 0.00 | 0.00 | 0.00 | 1 | 986.8 |
| 20260502203505 | 64 | 139 | 3.0 | 4.0 | 0.00 | 0.00 | 0.00 | 100 | 987.0 |
| 20260502203004 | 64 | 121 | 2.0 | 2.0 | 0.00 | 0.00 | 0.00 | 1 | 986.4 |
| 20260502202504 | 64 | 128 | 2.0 | 2.0 | 0.00 | 0.00 | 0.00 | 1 | 986.5 |
| 20260502201503 | 62 | 146 | 4.0 | 4.0 | 0.00 | 0.00 | 0.00 | 5 | 986.6 |
| 20260502201002 | 62 | 169 | 3.0 | 4.0 | 0.00 | 0.00 | 0.00 | 6 | 986.2 |
| 20260502200508 | 62 | 148 | 5.0 | 6.0 | 0.00 | 0.00 | 0.00 | 4 | 986.8 |
| 20260502200007 | 63 | 141 | 5.0 | 7.0 | 0.00 | 0.00 | 0.00 | 4 | 986.5 |
| 20260502195507 | 64 | 149 | 5.0 | 7.0 | 0.00 | 0.00 | 0.00 | 5 | 986.2 |
| 20260502195007 | 63 | 143 | 5.0 | 7.0 | 0.00 | 0.00 | 0.00 | 5 | 986.3 |
| 20260502194506 | 62 | 129 | 3.0 | 5.0 | 0.00 | 0.00 | 0.00 | 4 | 986.4 |
| 20260502194006 | 62 | 123 | 2.0 | 3.0 | 0.00 | 0.00 | 0.00 | 3 | 985.9 |
| 20260502193505 | 63 | 92 | 3.0 | 4.0 | 0.00 | 0.00 | 0.00 | 4 | 986.6 |
| 20260502193004 | 63 | 94 | 3.0 | 6.0 | 0.00 | 0.00 | 0.00 | 6 | 986.4 |
| 20260502192503 | 62 | 125 | 4.0 | 6.0 | 0.00 | 0.00 | 0.00 | 6 | 986.4 |
| 20260502192003 | 62 | 90 | 5.0 | 8.0 | 0.00 | 0.00 | 0.00 | 7 | 986.7 |
| 20260502191508 | 63 | 92 | 2.0 | 3.0 | 0.00 | 0.00 | 0.00 | 5 | 986.6 |
| 20260502191008 | 64 | 100 | 3.0 | 6.0 | 0.00 | 0.00 | 0.00 | 7 | 985.9 |
| 20260502190007 | 64 | 97 | 3.0 | 6.0 | 0.00 | 0.00 | 0.00 | 6 | 986.1 |
| 20260502185507 | 64 | 102 | 2.0 | 2.0 | 0.00 | 0.00 | 0.00 | 6 | 985.4 |
| 20260502185006 | 64 | 108 | 1.0 | 2.0 | 0.00 | 0.00 | 0.00 | 6 | 987.5 |
| 20260502184505 | 64 | 115 | 2.0 | 4.0 | 0.00 | 0.00 | 0.00 | 6 | 988.2 |
| 20260502184005 | 63 | 59 | 2.0 | 4.0 | 0.00 | 0.00 | 0.00 | 6 | 986.4 |
| 20260502183004 | 61 | 33 | 2.0 | 4.0 | 0.00 | 0.00 | 0.00 | 10 | 987.8 |
| 20260502182504 | 62 | 53 | 2.0 | 4.0 | 0.00 | 0.00 | 0.00 | 8 | 987.5 |
| 20260502182009 | 61 | 72 | 1.0 | 3.0 | 0.00 | 0.00 | 0.00 | 8 | 987.3 |
| 20260502181508 | 60 | 94 | 1.0 | 1.0 | 0.00 | 0.00 | 0.00 | 7 | 987.1 |
| 20260502181008 | 60 | 23 | 1.0 | 2.0 | 0.00 | 0.00 | 0.00 | 6 | 987.5 |
| 20260502170507 | 62 | 91 | 1.0 | 3.0 | 0.00 | 0.00 | 0.00 | 4 | 987.1 |
| 20260502164004 | 62 | 123 | 3.0 | 4.0 | 0.00 | 0.00 | 0.00 | 5 | 986.1 |
| 20260502163504 | 63 | 66 | 2.0 | 3.0 | 0.00 | 0.00 | 0.00 | 3 | 986.9 |
| 20260502163003 | 63 | 127 | 3.0 | 6.0 | 0.00 | 0.00 | 0.00 | 4 | 986.7 |
| 20260502162502 | 62 | 115 | 3.0 | 6.0 | 0.00 | 0.00 | 0.00 | 4 | 985.7 |
| 20260502161508 | 62 | 79 | 2.0 | 5.0 | 0.00 | 0.00 | 0.00 | 5 | 985.9 |
| 20260502161007 | 61 | 145 | 5.0 | 6.0 | 0.00 | 0.00 | 0.00 | 4 | 986.2 |
| 20260502160507 | 61 | 77 | 2.0 | 5.0 | 0.00 | 0.00 | 0.00 | 4 | 985.9 |
| 20260502151507 | 59 | 67 | 2.0 | 3.0 | 0.00 | 0.00 | 0.00 | 6 | 985.7 |
| 20260502151007 | 59 | 84 | 3.0 | 3.0 | 0.00 | 0.00 | 0.00 | 5 | 985.3 |
| 20260502130507 | 49 | 338 | 3.0 | 3.0 | 0.00 | 0.00 | 0.00 | 100 | 983.2 |
| 20260502123505 | 49 | 280 | 2.0 | 2.0 | 0.00 | 0.00 | 0.00 | 1 | 983.1 |
| 20260502123022 | 49 | 357 | 1.0 | 2.0 | 0.00 | 0.00 | 0.00 | 1 | 983.3 |
| 20260502122504 | 49 | 169 | 1.0 | 1.0 | 0.00 | 0.00 | 0.00 | 1 | 983.6 |
| 20260502121503 | 49 | 255 | 2.0 | 2.0 | 0.00 | 0.00 | 0.00 | 1 | 982.7 |
| 20260502121003 | 49 | 303 | 2.0 | 2.0 | 0.00 | 0.00 | 0.00 | 1 | 983.3 |
| 20260502115507 | 49 | 295 | 3.0 | 4.0 | 0.00 | 0.00 | 0.00 | 1 | 983.0 |
| 20260502115007 | 48 | 267 | 2.0 | 2.0 | 0.00 | 0.00 | 0.00 | 100 | 982.7 |
| 20260502114506 | 48 | 269 | 3.0 | 4.0 | 0.00 | 0.00 | 0.00 | 1 | 983.0 |
| 20260502113505 | 48 | 255 | 2.0 | 3.0 | 0.00 | 0.00 | 0.00 | 1 | 982.5 |
| 20260502113005 | 47 | 285 | 2.0 | 3.0 | 0.00 | 0.00 | 0.00 | 2 | 983.0 |
| 20260502112503 | 47 | 319 | 4.0 | 6.0 | 0.00 | 0.00 | 0.00 | 1 | 983.0 |
| 20260502112003 | 47 | 274 | 5.0 | 7.0 | 0.00 | 0.00 | 0.00 | 100 | 982.2 |
| 20260502111502 | 49 | 247 | 2.0 | 3.0 | 0.00 | 0.00 | 0.00 | 1 | 982.8 |
| 20260502110508 | 49 | 260 | 3.0 | 5.0 | 0.00 | 0.00 | 0.00 | 1 | 983.4 |
| 20260502110007 | 49 | 249 | 5.0 | 5.0 | 0.00 | 0.00 | 0.00 | 1 | 983.0 |
| 20260502105506 | 49 | 250 | 3.0 | 4.0 | 0.00 | 0.00 | 0.00 | 1 | 983.1 |
| 20260502105006 | 49 | 236 | 3.0 | 5.0 | 0.00 | 0.00 | 0.00 | 1 | 982.7 |
| 20260502104505 | 49 | 236 | 2.0 | 4.0 | 0.00 | 0.00 | 0.00 | 1 | 983.0 |
| 20260502104004 | 50 | 221 | 3.0 | 4.0 | 0.00 | 0.00 | 0.00 | 1 | 982.4 |
| 20260502103504 | 49 | 222 | 2.0 | 4.0 | 0.00 | 0.00 | 0.00 | 1 | 983.2 |
| 20260502103003 | 50 | 245 | 2.0 | 4.0 | 0.00 | 0.00 | 0.00 | 1 | 982.9 |
| 20260502102503 | 50 | 192 | 2.0 | 3.0 | 0.00 | 0.00 | 0.00 | 1 | 983.2 |
| 20260502102008 | 49 | 205 | 1.0 | 1.0 | 0.00 | 0.00 | 0.00 | 100 | 983.8 |
| 20260502101507 | 49 | 233 | 3.0 | 5.0 | 0.00 | 0.00 | 0.00 | 1 | 983.5 |
| 20260502101007 | 49 | 223 | 1.0 | 2.0 | 0.00 | 0.00 | 0.00 | 1 | 983.4 |
| 20260502100506 | 49 | 220 | 1.0 | 1.0 | 0.00 | 0.00 | 0.00 | 1 | 983.3 |
| 20260502091508 | 46 | 309 | 7.0 | 9.0 | 0.00 | 0.00 | 0.00 | 6 | 983.9 |
| 20260502091007 | 46 | 313 | 7.0 | 7.0 | 0.00 | 0.00 | 0.00 | 6 | 983.2 |
| 20260502090507 | 47 | 304 | 8.0 | 9.0 | 0.00 | 0.00 | 0.00 | 6 | 983.9 |
| 20260502071508 | 46 | 305 | 11.0 | 13.0 | 0.00 | 0.00 | 0.00 | 9 | 983.0 |
| 20260502071007 | 46 | 318 | 13.0 | 15.0 | 0.00 | 0.00 | 0.00 | 8 | 984.2 |
| 20260502070507 | 46 | 324 | 12.0 | 15.0 | 0.00 | 0.00 | 0.00 | 8 | 983.8 |
| 20260502065506 | 46 | 310 | 14.0 | 18.0 | 0.00 | 0.00 | 0.00 | 7 | 983.3 |
| 20260502065006 | 46 | 308 | 12.0 | 15.0 | 0.00 | 0.00 | 0.00 | 7 | 983.8 |
| 20260502064505 | 46 | 299 | 9.0 | 13.0 | 0.00 | 0.00 | 0.00 | 7 | 982.9 |
| 20260502063504 | 46 | 306 | 12.0 | 17.0 | 0.00 | 0.00 | 0.00 | 8 | 983.9 |
| 20260502063004 | 47 | 294 | 8.0 | 10.0 | 0.00 | 0.00 | 0.00 | 7 | 983.7 |
| 20260502062509 | 46 | 321 | 9.0 | 11.0 | 0.00 | 0.00 | 0.00 | 9 | 984.4 |
| 20260502062009 | 46 | 303 | 10.0 | 13.0 | 0.00 | 0.00 | 0.00 | 11 | 983.7 |
| 20260502061008 | 46 | 297 | 9.0 | 11.0 | 0.00 | 0.00 | 0.00 | 12 | 983.5 |
| 20260502060007 | 45 | 306 | 11.0 | 13.0 | 0.00 | 0.00 | 0.00 | 15 | 983.7 |
| 20260502055507 | 46 | 324 | 12.0 | 14.0 | 0.00 | 0.00 | 0.00 | 16 | 983.6 |
| 20260502055006 | 46 | 319 | 13.0 | 16.0 | 0.00 | 0.00 | 0.00 | 16 | 983.8 |
| 20260502054506 | 46 | 323 | 12.0 | 14.0 | 0.00 | 0.00 | 0.00 | 16 | 983.2 |
| 20260502054005 | 45 | 307 | 11.0 | 13.0 | 0.00 | 0.00 | 0.00 | 17 | 983.1 |
| 20260502053505 | 46 | 318 | 13.0 | 15.0 | 0.00 | 0.00 | 0.00 | 17 | 983.2 |
| 20260502053004 | 46 | 315 | 11.0 | 12.0 | 0.00 | 0.00 | 0.00 | 15 | 983.6 |
| 20260502052504 | 46 | 309 | 8.0 | 9.0 | 0.00 | 0.00 | 0.00 | 16 | 983.8 |
| 20260502052003 | 46 | 321 | 11.0 | 14.0 | 0.00 | 0.00 | 0.00 | 16 | 983.4 |
| 20260502051509 | 46 | 330 | 11.0 | 13.0 | 0.00 | 0.00 | 0.00 | 16 | 983.5 |
| 20260502051008 | 47 | 328 | 8.0 | 11.0 | 0.00 | 0.00 | 0.00 | 15 | 983.4 |
| 20260502050507 | 47 | 320 | 6.0 | 9.0 | 0.00 | 0.00 | 0.00 | 13 | 982.5 |
| 20260502045507 | 48 | 317 | 3.0 | 4.0 | 0.00 | 0.00 | 0.00 | 11 | 983.0 |
| 20260502045006 | 47 | 288 | 4.0 | 6.0 | 0.00 | 0.00 | 0.00 | 13 | 983.1 |
| 20260502044005 | 48 | 321 | 6.0 | 8.0 | 0.00 | 0.00 | 0.00 | 13 | 983.2 |
| 20260502043505 | 48 | 322 | 5.0 | 6.0 | 0.00 | 0.00 | 0.00 | 13 | 984.0 |
| 20260502043004 | 47 | 324 | 5.0 | 7.0 | 0.00 | 0.00 | 0.00 | 14 | 983.6 |
| 20260502042004 | 47 | 327 | 7.0 | 12.0 | 0.00 | 0.00 | 0.00 | 15 | 983.3 |
| 20260502041509 | 47 | 322 | 8.0 | 11.0 | 0.00 | 0.00 | 0.00 | 14 | 983.4 |
| 20260502041009 | 46 | 320 | 11.0 | 14.0 | 0.00 | 0.00 | 0.00 | 14 | 983.3 |
| 20260502040508 | 47 | 325 | 8.0 | 11.0 | 0.00 | 0.00 | 0.00 | 14 | 982.8 |
| 20260502035507 | 47 | 326 | 8.0 | 11.0 | 0.00 | 0.00 | 0.00 | 13 | 983.6 |
| 20260502035007 | 47 | 304 | 7.0 | 8.0 | 0.00 | 0.00 | 0.00 | 13 | 982.9 |